Year,Month,Day,Hour,Minute,Value (Times are PST for temperature in C)
2019,03,20,00,00,7.90
2019,03,20,00,01,7.90
2019,03,20,00,02,7.80
2019,03,20,00,03,7.80
2019,03,20,00,04,7.80
2019,03,20,00,05,7.80
2019,03,20,00,06,7.80
2019,03,20,00,07,7.80
2019,03,20,00,08,7.70
2019,03,20,00,09,7.70
2019,03,20,00,10,7.70
2019,03,20,00,11,7.70
2019,03,20,00,12,7.70
2019,03,20,00,13,7.60
2019,03,20,00,14,7.60
2019,03,20,00,15,7.60
2019,03,20,00,16,7.60
2019,03,20,00,17,7.60
2019,03,20,00,18,7.50
2019,03,20,00,19,7.50
2019,03,20,00,20,7.40
2019,03,20,00,21,7.40
2019,03,20,00,22,7.40
2019,03,20,00,23,7.40
2019,03,20,00,24,7.40
2019,03,20,00,25,7.40
2019,03,20,00,26,7.50
2019,03,20,00,27,7.50
2019,03,20,00,28,7.60
2019,03,20,00,29,7.60
2019,03,20,00,30,7.60
2019,03,20,00,31,7.60
2019,03,20,00,32,7.60
2019,03,20,00,33,7.60
2019,03,20,00,34,7.60
2019,03,20,00,35,7.60
2019,03,20,00,36,7.50
2019,03,20,00,37,7.50
2019,03,20,00,38,7.60
2019,03,20,00,39,7.60
2019,03,20,00,40,7.60
2019,03,20,00,41,7.60
2019,03,20,00,42,7.60
2019,03,20,00,43,7.60
2019,03,20,00,44,7.60
2019,03,20,00,45,7.60
2019,03,20,00,46,7.60
2019,03,20,00,47,7.60
2019,03,20,00,48,7.50
2019,03,20,00,49,7.50
2019,03,20,00,50,7.50
2019,03,20,00,51,7.40
2019,03,20,00,52,7.40
2019,03,20,00,53,7.40
2019,03,20,00,54,7.30
2019,03,20,00,55,7.30
2019,03,20,00,56,7.30
2019,03,20,00,57,7.20
2019,03,20,00,58,7.20
2019,03,20,00,59,7.20
2019,03,20,01,00,7.20
2019,03,20,01,01,7.20
2019,03,20,01,02,7.10
2019,03,20,01,03,7.10
2019,03,20,01,04,7.10
2019,03,20,01,05,7.10
2019,03,20,01,06,7.10
2019,03,20,01,07,7.10
2019,03,20,01,08,7.10
2019,03,20,01,09,7.10
2019,03,20,01,10,7.10
2019,03,20,01,11,7.00
2019,03,20,01,12,7.00
2019,03,20,01,13,7.00
2019,03,20,01,14,7.00
2019,03,20,01,15,7.00
2019,03,20,01,16,7.00
2019,03,20,01,17,6.90
2019,03,20,01,18,6.90
2019,03,20,01,19,6.90
2019,03,20,01,20,6.80
2019,03,20,01,21,6.80
2019,03,20,01,22,6.80
2019,03,20,01,23,6.80
2019,03,20,01,24,6.80
2019,03,20,01,25,6.70
2019,03,20,01,26,6.70
2019,03,20,01,27,6.70
2019,03,20,01,28,6.60
2019,03,20,01,29,6.60
2019,03,20,01,30,6.60
2019,03,20,01,31,6.60
2019,03,20,01,32,6.70
2019,03,20,01,33,6.70
2019,03,20,01,34,6.70
2019,03,20,01,35,6.70
2019,03,20,01,36,6.70
2019,03,20,01,37,6.70
2019,03,20,01,38,6.70
2019,03,20,01,39,6.70
2019,03,20,01,40,6.70
2019,03,20,01,41,6.70
2019,03,20,01,42,6.70
2019,03,20,01,43,6.70
2019,03,20,01,44,6.70
2019,03,20,01,45,6.70
2019,03,20,01,46,6.70
2019,03,20,01,47,6.60
2019,03,20,01,48,6.60
2019,03,20,01,49,6.60
2019,03,20,01,50,6.60
2019,03,20,01,51,6.50
2019,03,20,01,52,6.50
2019,03,20,01,53,6.50
2019,03,20,01,54,6.40
2019,03,20,01,55,6.40
2019,03,20,01,56,6.40
2019,03,20,01,57,6.40
2019,03,20,01,58,6.40
2019,03,20,01,59,6.40
2019,03,20,02,00,6.40
2019,03,20,02,01,6.40
2019,03,20,02,02,6.40
2019,03,20,02,03,6.40
2019,03,20,02,04,6.40
2019,03,20,02,05,6.40
2019,03,20,02,06,6.40
2019,03,20,02,07,6.30
2019,03,20,02,08,6.30
2019,03,20,02,09,6.30
2019,03,20,02,10,6.30
2019,03,20,02,11,6.20
2019,03,20,02,12,6.20
2019,03,20,02,13,6.20
2019,03,20,02,14,6.10
2019,03,20,02,15,6.10
2019,03,20,02,16,6.10
2019,03,20,02,17,6.00
2019,03,20,02,18,6.00
2019,03,20,02,19,6.00
2019,03,20,02,20,6.00
2019,03,20,02,21,6.10
2019,03,20,02,22,6.00
2019,03,20,02,23,6.00
2019,03,20,02,24,6.00
2019,03,20,02,25,6.00
2019,03,20,02,26,6.00
2019,03,20,02,27,6.00
2019,03,20,02,28,5.90
2019,03,20,02,29,5.90
2019,03,20,02,30,5.90
2019,03,20,02,31,5.90
2019,03,20,02,32,5.90
2019,03,20,02,33,5.90
2019,03,20,02,34,5.80
2019,03,20,02,35,5.80
2019,03,20,02,36,5.80
2019,03,20,02,37,5.80
2019,03,20,02,38,5.80
2019,03,20,02,39,5.80
2019,03,20,02,40,5.80
2019,03,20,02,41,5.70
2019,03,20,02,42,5.70
2019,03,20,02,43,5.70
2019,03,20,02,44,5.70
2019,03,20,02,45,5.70
2019,03,20,02,46,5.70
2019,03,20,02,47,5.70
2019,03,20,02,48,5.70
2019,03,20,02,49,5.70
2019,03,20,02,50,5.70
2019,03,20,02,51,5.70
2019,03,20,02,52,5.70
2019,03,20,02,53,5.70
2019,03,20,02,54,5.70
2019,03,20,02,55,5.70
2019,03,20,02,56,5.80
2019,03,20,02,57,5.80
2019,03,20,02,58,5.80
2019,03,20,02,59,5.90
2019,03,20,03,00,5.90
2019,03,20,03,01,5.90
2019,03,20,03,02,5.90
2019,03,20,03,03,5.90
2019,03,20,03,04,5.90
2019,03,20,03,05,5.90
2019,03,20,03,06,5.90
2019,03,20,03,07,5.90
2019,03,20,03,08,5.90
2019,03,20,03,09,5.80
2019,03,20,03,10,5.80
2019,03,20,03,11,5.80
2019,03,20,03,12,5.80
2019,03,20,03,13,5.80
2019,03,20,03,14,5.70
2019,03,20,03,15,5.70
2019,03,20,03,16,5.70
2019,03,20,03,17,5.60
2019,03,20,03,18,5.60
2019,03,20,03,19,5.60
2019,03,20,03,20,5.60
2019,03,20,03,21,5.60
2019,03,20,03,22,5.60
2019,03,20,03,23,5.60
2019,03,20,03,24,5.60
2019,03,20,03,25,5.50
2019,03,20,03,26,5.50
2019,03,20,03,27,5.50
2019,03,20,03,28,5.40
2019,03,20,03,29,5.40
2019,03,20,03,30,5.40
2019,03,20,03,31,5.40
2019,03,20,03,32,5.40
2019,03,20,03,33,5.40
2019,03,20,03,34,5.30
2019,03,20,03,35,5.30
2019,03,20,03,36,5.30
2019,03,20,03,37,5.30
2019,03,20,03,38,5.20
2019,03,20,03,39,5.20
2019,03,20,03,40,5.20
2019,03,20,03,41,5.10
2019,03,20,03,42,5.10
2019,03,20,03,43,5.10
2019,03,20,03,44,5.10
2019,03,20,03,45,5.10
2019,03,20,03,46,5.00
2019,03,20,03,47,5.00
2019,03,20,03,48,5.00
2019,03,20,03,49,5.00
2019,03,20,03,50,5.00
2019,03,20,03,51,5.00
2019,03,20,03,52,4.90
2019,03,20,03,53,4.90
2019,03,20,03,54,4.90
2019,03,20,03,55,4.90
2019,03,20,03,56,4.90
2019,03,20,03,57,4.90
2019,03,20,03,58,4.90
2019,03,20,03,59,4.90
2019,03,20,04,00,4.90
2019,03,20,04,01,4.90
2019,03,20,04,02,4.90
2019,03,20,04,03,4.90
2019,03,20,04,04,4.90
2019,03,20,04,05,4.90
2019,03,20,04,06,4.90
2019,03,20,04,07,4.90
2019,03,20,04,08,4.90
2019,03,20,04,09,4.90
2019,03,20,04,10,4.80
2019,03,20,04,11,4.80
2019,03,20,04,12,4.80
2019,03,20,04,13,4.80
2019,03,20,04,14,4.80
2019,03,20,04,15,4.80
2019,03,20,04,16,4.80
2019,03,20,04,17,4.80
2019,03,20,04,18,4.80
2019,03,20,04,19,4.80
2019,03,20,04,20,4.80
2019,03,20,04,21,4.80
2019,03,20,04,22,4.80
2019,03,20,04,23,4.80
2019,03,20,04,24,4.70
2019,03,20,04,25,4.70
2019,03,20,04,26,4.70
2019,03,20,04,27,4.70
2019,03,20,04,28,4.60
2019,03,20,04,29,4.60
2019,03,20,04,30,4.60
2019,03,20,04,31,4.60
2019,03,20,04,32,4.60
2019,03,20,04,33,4.60
2019,03,20,04,34,4.60
2019,03,20,04,35,4.60
2019,03,20,04,36,4.60
2019,03,20,04,37,4.60
2019,03,20,04,38,4.60
2019,03,20,04,39,4.60
2019,03,20,04,40,4.50
2019,03,20,04,41,4.60
2019,03,20,04,42,4.60
2019,03,20,04,43,4.60
2019,03,20,04,44,4.60
2019,03,20,04,45,4.60
2019,03,20,04,46,4.60
2019,03,20,04,47,4.50
2019,03,20,04,48,4.50
2019,03,20,04,49,4.50
2019,03,20,04,50,4.50
2019,03,20,04,51,4.50
2019,03,20,04,52,4.50
2019,03,20,04,53,4.40
2019,03,20,04,54,4.50
2019,03,20,04,55,4.50
2019,03,20,04,56,4.50
2019,03,20,04,57,4.40
2019,03,20,04,58,4.40
2019,03,20,04,59,4.40
2019,03,20,05,00,4.40
2019,03,20,05,01,4.50
2019,03,20,05,02,4.40
2019,03,20,05,03,4.40
2019,03,20,05,04,4.40
2019,03,20,05,05,4.40
2019,03,20,05,06,4.40
2019,03,20,05,07,4.40
2019,03,20,05,08,4.40
2019,03,20,05,09,4.40
2019,03,20,05,10,4.50
2019,03,20,05,11,4.50
2019,03,20,05,12,4.40
2019,03,20,05,13,4.40
2019,03,20,05,14,4.50
2019,03,20,05,15,4.50
2019,03,20,05,16,4.50
2019,03,20,05,17,4.50
2019,03,20,05,18,4.50
2019,03,20,05,19,4.50
2019,03,20,05,20,4.50
2019,03,20,05,21,4.40
2019,03,20,05,22,4.40
2019,03,20,05,23,4.40
2019,03,20,05,24,4.40
2019,03,20,05,25,4.30
2019,03,20,05,26,4.30
2019,03,20,05,27,4.30
2019,03,20,05,28,4.30
2019,03,20,05,29,4.30
2019,03,20,05,30,4.30
2019,03,20,05,31,4.30
2019,03,20,05,32,4.30
2019,03,20,05,33,4.30
2019,03,20,05,34,4.30
2019,03,20,05,35,4.30
2019,03,20,05,36,4.30
2019,03,20,05,37,4.30
2019,03,20,05,38,4.30
2019,03,20,05,39,4.30
2019,03,20,05,40,4.30
2019,03,20,05,41,4.30
2019,03,20,05,42,4.30
2019,03,20,05,43,4.30
2019,03,20,05,44,4.30
2019,03,20,05,45,4.30
2019,03,20,05,46,4.20
2019,03,20,05,47,4.20
2019,03,20,05,48,4.20
2019,03,20,05,49,4.20
2019,03,20,05,50,4.20
2019,03,20,05,51,4.10
2019,03,20,05,52,4.10
2019,03,20,05,53,4.00
2019,03,20,05,54,4.00
2019,03,20,05,55,4.00
2019,03,20,05,56,4.00
2019,03,20,05,57,4.10
2019,03,20,05,58,4.10
2019,03,20,05,59,4.00
2019,03,20,06,00,4.00
2019,03,20,06,01,4.00
2019,03,20,06,02,4.00
2019,03,20,06,03,4.00
2019,03,20,06,04,4.10
2019,03,20,06,05,4.00
2019,03,20,06,06,4.00
2019,03,20,06,07,3.90
2019,03,20,06,08,4.00
2019,03,20,06,09,4.00
2019,03,20,06,10,4.10
2019,03,20,06,11,4.10
2019,03,20,06,12,4.10
2019,03,20,06,13,4.10
2019,03,20,06,14,4.10
2019,03,20,06,15,4.10
2019,03,20,06,16,4.10
2019,03,20,06,17,4.10
2019,03,20,06,18,4.10
2019,03,20,06,19,4.10
2019,03,20,06,20,4.10
2019,03,20,06,21,4.00
2019,03,20,06,22,4.00
2019,03,20,06,23,3.90
2019,03,20,06,24,3.90
2019,03,20,06,25,3.90
2019,03,20,06,26,3.90
2019,03,20,06,27,3.80
2019,03,20,06,28,3.80
2019,03,20,06,29,3.80
2019,03,20,06,30,3.80
2019,03,20,06,31,3.80
2019,03,20,06,32,3.80
2019,03,20,06,33,3.80
2019,03,20,06,34,3.80
2019,03,20,06,35,3.80
2019,03,20,06,36,3.80
2019,03,20,06,37,3.80
2019,03,20,06,38,3.80
2019,03,20,06,39,3.80
2019,03,20,06,40,3.80
2019,03,20,06,41,3.80
2019,03,20,06,42,3.80
2019,03,20,06,43,3.70
2019,03,20,06,44,3.70
2019,03,20,06,45,3.70
2019,03,20,06,46,3.70
2019,03,20,06,47,3.60
2019,03,20,06,48,3.60
2019,03,20,06,49,3.60
2019,03,20,06,50,3.60
2019,03,20,06,51,3.50
2019,03,20,06,52,3.50
2019,03,20,06,53,3.50
2019,03,20,06,54,3.40
2019,03,20,06,55,3.40
2019,03,20,06,56,3.40
2019,03,20,06,57,3.40
2019,03,20,06,58,3.40
2019,03,20,06,59,3.30
2019,03,20,07,00,3.30
2019,03,20,07,01,3.30
2019,03,20,07,02,3.30
2019,03,20,07,03,3.30
2019,03,20,07,04,3.30
2019,03,20,07,05,3.40
2019,03,20,07,06,3.40
2019,03,20,07,07,3.40
2019,03,20,07,08,3.40
2019,03,20,07,09,3.30
2019,03,20,07,10,3.30
2019,03,20,07,11,3.30
2019,03,20,07,12,3.30
2019,03,20,07,13,3.30
2019,03,20,07,14,3.40
2019,03,20,07,15,3.40
2019,03,20,07,16,3.40
2019,03,20,07,17,3.50
2019,03,20,07,18,3.50
2019,03,20,07,19,3.50
2019,03,20,07,20,3.50
2019,03,20,07,21,3.60
2019,03,20,07,22,3.50
2019,03,20,07,23,3.50
2019,03,20,07,24,3.50
2019,03,20,07,25,3.50
2019,03,20,07,26,3.40
2019,03,20,07,27,3.30
2019,03,20,07,28,3.30
2019,03,20,07,29,3.30
2019,03,20,07,30,3.20
2019,03,20,07,31,3.10
2019,03,20,07,32,3.10
2019,03,20,07,33,3.10
2019,03,20,07,34,3.00
2019,03,20,07,35,3.00
2019,03,20,07,36,2.90
2019,03,20,07,37,2.90
2019,03,20,07,38,2.90
2019,03,20,07,39,2.90
2019,03,20,07,40,2.80
2019,03,20,07,41,2.90
2019,03,20,07,42,2.90
2019,03,20,07,43,2.90
2019,03,20,07,44,2.90
2019,03,20,07,45,2.80
2019,03,20,07,46,2.80
2019,03,20,07,47,2.80
2019,03,20,07,48,2.80
2019,03,20,07,49,2.80
2019,03,20,07,50,2.80
2019,03,20,07,51,2.90
2019,03,20,07,52,2.90
2019,03,20,07,53,2.90
2019,03,20,07,54,2.90
2019,03,20,07,55,2.90
2019,03,20,07,56,2.90
2019,03,20,07,57,2.90
2019,03,20,07,58,2.90
2019,03,20,07,59,2.90
2019,03,20,08,00,2.90
2019,03,20,08,01,3.00
2019,03,20,08,02,3.00
2019,03,20,08,03,3.00
2019,03,20,08,04,3.00
2019,03,20,08,05,2.90
2019,03,20,08,06,2.90
2019,03,20,08,07,2.90
2019,03,20,08,08,2.90
2019,03,20,08,09,2.90
2019,03,20,08,10,2.80
2019,03,20,08,11,2.80
2019,03,20,08,12,2.80
2019,03,20,08,13,2.80
2019,03,20,08,14,2.80
2019,03,20,08,15,2.80
2019,03,20,08,16,2.80
2019,03,20,08,17,2.80
2019,03,20,08,18,2.90
2019,03,20,08,19,2.90
2019,03,20,08,20,2.90
2019,03,20,08,21,2.90
2019,03,20,08,22,3.00
2019,03,20,08,23,3.00
2019,03,20,08,24,3.10
2019,03,20,08,25,3.10
2019,03,20,08,26,3.20
2019,03,20,08,27,3.20
2019,03,20,08,28,3.20
2019,03,20,08,29,3.20
2019,03,20,08,30,3.20
2019,03,20,08,31,3.20
2019,03,20,08,32,3.20
2019,03,20,08,33,3.20
2019,03,20,08,34,3.20
2019,03,20,08,35,3.30
2019,03,20,08,36,3.30
2019,03,20,08,37,3.30
2019,03,20,08,38,3.40
2019,03,20,08,39,3.40
2019,03,20,08,40,3.50
2019,03,20,08,41,3.60
2019,03,20,08,42,3.60
2019,03,20,08,43,3.70
2019,03,20,08,44,3.80
2019,03,20,08,45,3.90
2019,03,20,08,46,4.00
2019,03,20,08,47,4.00
2019,03,20,08,48,4.10
2019,03,20,08,49,4.20
2019,03,20,08,50,4.30
2019,03,20,08,51,4.40
2019,03,20,08,52,4.50
2019,03,20,08,53,4.70
2019,03,20,08,54,4.80
2019,03,20,08,55,4.80
2019,03,20,08,56,4.90
2019,03,20,08,57,4.90
2019,03,20,08,58,5.00
2019,03,20,08,59,5.00
2019,03,20,09,00,5.00
2019,03,20,09,01,5.00
2019,03,20,09,02,5.00
2019,03,20,09,03,5.10
2019,03,20,09,04,5.10
2019,03,20,09,05,5.10
2019,03,20,09,06,5.20
2019,03,20,09,07,5.30
2019,03,20,09,08,5.30
2019,03,20,09,09,5.40
2019,03,20,09,10,5.50
2019,03,20,09,11,5.60
2019,03,20,09,12,5.70
2019,03,20,09,13,5.80
2019,03,20,09,14,5.80
2019,03,20,09,15,5.80
2019,03,20,09,16,5.90
2019,03,20,09,17,5.90
2019,03,20,09,18,6.00
2019,03,20,09,19,6.00
2019,03,20,09,20,6.10
2019,03,20,09,21,6.10
2019,03,20,09,22,6.20
2019,03,20,09,23,6.20
2019,03,20,09,24,6.30
2019,03,20,09,25,6.30
2019,03,20,09,26,6.30
2019,03,20,09,27,6.30
2019,03,20,09,28,6.30
2019,03,20,09,29,6.30
2019,03,20,09,30,6.30
2019,03,20,09,31,6.30
2019,03,20,09,32,6.40
2019,03,20,09,33,6.40
2019,03,20,09,34,6.40
2019,03,20,09,35,6.50
2019,03,20,09,36,6.50
2019,03,20,09,37,6.50
2019,03,20,09,38,6.60
2019,03,20,09,39,6.60
2019,03,20,09,40,6.60
2019,03,20,09,41,6.60
2019,03,20,09,42,6.60
2019,03,20,09,43,6.60
2019,03,20,09,44,6.60
2019,03,20,09,45,6.70
2019,03,20,09,46,6.70
2019,03,20,09,47,6.70
2019,03,20,09,48,6.70
2019,03,20,09,49,6.70
2019,03,20,09,50,6.70
2019,03,20,09,51,6.70
2019,03,20,09,52,6.80
2019,03,20,09,53,6.80
2019,03,20,09,54,6.80
2019,03,20,09,55,6.90
2019,03,20,09,56,6.90
2019,03,20,09,57,7.00
2019,03,20,09,58,7.00
2019,03,20,09,59,7.10
2019,03,20,10,00,7.10
2019,03,20,10,01,7.20
2019,03,20,10,02,7.20
2019,03,20,10,03,7.20
2019,03,20,10,04,7.30
2019,03,20,10,05,7.50
2019,03,20,10,06,7.60
2019,03,20,10,07,7.70
2019,03,20,10,08,7.70
2019,03,20,10,09,7.80
2019,03,20,10,10,7.80
2019,03,20,10,11,7.90
2019,03,20,10,12,7.90
2019,03,20,10,13,8.00
2019,03,20,10,14,8.00
2019,03,20,10,15,8.10
2019,03,20,10,16,8.10
2019,03,20,10,17,8.20
2019,03,20,10,18,8.20
2019,03,20,10,19,8.20
2019,03,20,10,20,8.20
2019,03,20,10,21,8.30
2019,03,20,10,22,8.30
2019,03,20,10,23,8.30
2019,03,20,10,24,8.30
2019,03,20,10,25,8.30
2019,03,20,10,26,8.40
2019,03,20,10,27,8.40
2019,03,20,10,28,8.50
2019,03,20,10,29,8.50
2019,03,20,10,30,8.50
2019,03,20,10,31,8.60
2019,03,20,10,32,8.60
2019,03,20,10,33,8.70
2019,03,20,10,34,8.80
2019,03,20,10,35,8.80
2019,03,20,10,36,8.90
2019,03,20,10,37,9.00
2019,03,20,10,38,9.10
2019,03,20,10,39,9.20
2019,03,20,10,40,9.30
2019,03,20,10,41,9.30
2019,03,20,10,42,9.40
2019,03,20,10,43,9.50
2019,03,20,10,44,9.60
2019,03,20,10,45,9.70
2019,03,20,10,46,9.70
2019,03,20,10,47,9.80
2019,03,20,10,48,9.90
2019,03,20,10,49,10.00
2019,03,20,10,50,10.10
2019,03,20,10,51,10.20
2019,03,20,10,52,10.30
2019,03,20,10,53,10.40
2019,03,20,10,54,10.50
2019,03,20,10,55,10.60
2019,03,20,10,56,10.60
2019,03,20,10,57,10.70
2019,03,20,10,58,10.70
2019,03,20,10,59,10.70
2019,03,20,11,00,10.80
2019,03,20,11,01,10.90
2019,03,20,11,02,10.90
2019,03,20,11,03,10.90
2019,03,20,11,04,10.90
2019,03,20,11,05,11.00
2019,03,20,11,06,11.10
2019,03,20,11,07,11.10
2019,03,20,11,08,11.20
2019,03,20,11,09,11.20
2019,03,20,11,10,11.20
2019,03,20,11,11,11.30
2019,03,20,11,12,11.40
2019,03,20,11,13,11.50
2019,03,20,11,14,11.60
2019,03,20,11,15,11.70
2019,03,20,11,16,11.80
2019,03,20,11,17,11.80
2019,03,20,11,18,11.80
2019,03,20,11,19,11.90
2019,03,20,11,20,11.90
2019,03,20,11,21,11.90
2019,03,20,11,22,12.00
2019,03,20,11,23,12.00
2019,03,20,11,24,12.10
2019,03,20,11,25,12.20
2019,03,20,11,26,12.20
2019,03,20,11,27,12.30
2019,03,20,11,28,12.30
2019,03,20,11,29,12.30
2019,03,20,11,30,12.40
2019,03,20,11,31,12.50
2019,03,20,11,32,12.50
2019,03,20,11,33,12.60
2019,03,20,11,34,12.60
2019,03,20,11,35,12.60
2019,03,20,11,36,12.70
2019,03,20,11,37,12.70
2019,03,20,11,38,12.70
2019,03,20,11,39,12.80
2019,03,20,11,40,12.80
2019,03,20,11,41,12.80
2019,03,20,11,42,12.90
2019,03,20,11,43,12.90
2019,03,20,11,44,12.90
2019,03,20,11,45,13.00
2019,03,20,11,46,13.10
2019,03,20,11,47,13.10
2019,03,20,11,48,13.10
2019,03,20,11,49,13.10
2019,03,20,11,50,13.10
2019,03,20,11,51,13.10
2019,03,20,11,52,13.20
2019,03,20,11,53,13.20
2019,03,20,11,54,13.30
2019,03,20,11,55,13.30
2019,03,20,11,56,13.30
2019,03,20,11,57,13.30
2019,03,20,11,58,13.30
2019,03,20,11,59,13.40
2019,03,20,12,00,13.40
2019,03,20,12,01,13.50
2019,03,20,12,02,13.50
2019,03,20,12,03,13.60
2019,03,20,12,04,13.60
2019,03,20,12,05,13.70
2019,03,20,12,06,13.70
2019,03,20,12,07,13.70
2019,03,20,12,08,13.70
2019,03,20,12,09,13.70
2019,03,20,12,10,13.80
2019,03,20,12,11,13.80
2019,03,20,12,12,13.80
2019,03,20,12,13,13.80
2019,03,20,12,14,13.80
2019,03,20,12,15,14.00
2019,03,20,12,16,14.10
2019,03,20,12,17,14.20
2019,03,20,12,18,14.30
2019,03,20,12,19,14.40
2019,03,20,12,20,14.50
2019,03,20,12,21,14.60
2019,03,20,12,22,14.60
2019,03,20,12,23,14.70
2019,03,20,12,24,14.70
2019,03,20,12,25,14.70
2019,03,20,12,26,14.80
2019,03,20,12,27,14.80
2019,03,20,12,28,14.80
2019,03,20,12,29,14.90
2019,03,20,12,30,14.90
2019,03,20,12,31,14.90
2019,03,20,12,32,15.00
2019,03,20,12,33,15.10
2019,03,20,12,34,15.10
2019,03,20,12,35,15.00
2019,03,20,12,36,15.10
2019,03,20,12,37,15.10
2019,03,20,12,38,15.10
2019,03,20,12,39,15.10
2019,03,20,12,40,15.20
2019,03,20,12,41,15.30
2019,03,20,12,42,15.30
2019,03,20,12,43,15.40
2019,03,20,12,44,15.50
2019,03,20,12,45,15.60
2019,03,20,12,46,15.70
2019,03,20,12,47,15.80
2019,03,20,12,48,15.90
2019,03,20,12,49,16.10
2019,03,20,12,50,16.20
2019,03,20,12,51,16.20
2019,03,20,12,52,16.30
2019,03,20,12,53,16.30
2019,03,20,12,54,16.30
2019,03,20,12,55,16.40
2019,03,20,12,56,16.50
2019,03,20,12,57,16.60
2019,03,20,12,58,16.60
2019,03,20,12,59,16.60
2019,03,20,13,00,16.70
2019,03,20,13,01,16.60
2019,03,20,13,02,16.60
2019,03,20,13,03,16.60
2019,03,20,13,04,16.60
2019,03,20,13,05,16.60
2019,03,20,13,06,16.60
2019,03,20,13,07,16.70
2019,03,20,13,08,16.70
2019,03,20,13,09,16.80
2019,03,20,13,10,16.90
2019,03,20,13,11,16.90
2019,03,20,13,12,16.90
2019,03,20,13,13,16.90
2019,03,20,13,14,17.00
2019,03,20,13,15,17.10
2019,03,20,13,16,17.10
2019,03,20,13,17,17.20
2019,03,20,13,18,17.30
2019,03,20,13,19,17.40
2019,03,20,13,20,17.50
2019,03,20,13,21,17.50
2019,03,20,13,22,17.60
2019,03,20,13,23,17.60
2019,03,20,13,24,17.60
2019,03,20,13,25,17.70
2019,03,20,13,26,17.80
2019,03,20,13,27,17.80
2019,03,20,13,28,17.90
2019,03,20,13,29,17.90
2019,03,20,13,30,18.00
2019,03,20,13,31,18.10
2019,03,20,13,32,18.20
2019,03,20,13,33,18.20
2019,03,20,13,34,18.30
2019,03,20,13,35,18.30
2019,03,20,13,36,18.30
2019,03,20,13,37,18.30
2019,03,20,13,38,18.40
2019,03,20,13,39,18.40
2019,03,20,13,40,18.40
2019,03,20,13,41,18.50
2019,03,20,13,42,18.60
2019,03,20,13,43,18.60
2019,03,20,13,44,18.70
2019,03,20,13,45,18.70
2019,03,20,13,46,18.70
2019,03,20,13,47,18.80
2019,03,20,13,48,18.90
2019,03,20,13,49,19.00
2019,03,20,13,50,19.00
2019,03,20,13,51,19.10
2019,03,20,13,52,19.10
2019,03,20,13,53,19.20
2019,03,20,13,54,19.30
2019,03,20,13,55,19.30
2019,03,20,13,56,19.40
2019,03,20,13,57,19.50
2019,03,20,13,58,19.60
2019,03,20,13,59,19.60
2019,03,20,14,00,19.50
2019,03,20,14,01,19.40
2019,03,20,14,02,19.40
2019,03,20,14,03,19.40
2019,03,20,14,04,19.40
2019,03,20,14,05,19.40
2019,03,20,14,06,19.50
2019,03,20,14,07,19.60
2019,03,20,14,08,19.60
2019,03,20,14,09,19.80
2019,03,20,14,10,19.90
2019,03,20,14,11,20.10
2019,03,20,14,12,20.20
2019,03,20,14,13,20.20
2019,03,20,14,14,20.30
2019,03,20,14,15,20.30
2019,03,20,14,16,20.30
2019,03,20,14,17,20.30
2019,03,20,14,18,20.30
2019,03,20,14,19,20.30
2019,03,20,14,20,20.40
2019,03,20,14,21,20.50
2019,03,20,14,22,20.60
2019,03,20,14,23,20.70
2019,03,20,14,24,20.70
2019,03,20,14,25,20.80
2019,03,20,14,26,20.80
2019,03,20,14,27,20.80
2019,03,20,14,28,20.90
2019,03,20,14,29,20.90
2019,03,20,14,30,21.00
2019,03,20,14,31,21.10
2019,03,20,14,32,21.20
2019,03,20,14,33,21.30
2019,03,20,14,34,21.40
2019,03,20,14,35,21.40
2019,03,20,14,36,21.40
2019,03,20,14,37,21.40
2019,03,20,14,38,21.40
2019,03,20,14,39,21.40
2019,03,20,14,40,21.40
2019,03,20,14,41,21.50
2019,03,20,14,42,21.50
2019,03,20,14,43,21.60
2019,03,20,14,44,21.60
2019,03,20,14,45,21.70
2019,03,20,14,46,21.80
2019,03,20,14,47,21.80
2019,03,20,14,48,21.80
2019,03,20,14,49,21.90
2019,03,20,14,50,22.00
2019,03,20,14,51,22.10
2019,03,20,14,52,22.00
2019,03,20,14,53,22.00
2019,03,20,14,54,22.00
2019,03,20,14,55,22.00
2019,03,20,14,56,22.00
2019,03,20,14,57,22.00
2019,03,20,14,58,22.00
2019,03,20,14,59,22.00
2019,03,20,15,00,22.00
2019,03,20,15,01,22.10
2019,03,20,15,02,22.10
2019,03,20,15,03,22.10
2019,03,20,15,04,22.10
2019,03,20,15,05,22.10
2019,03,20,15,06,22.10
2019,03,20,15,07,22.10
2019,03,20,15,08,22.20
2019,03,20,15,09,22.30
2019,03,20,15,10,22.40
2019,03,20,15,11,22.50
2019,03,20,15,12,22.60
2019,03,20,15,13,22.60
2019,03,20,15,14,22.60
2019,03,20,15,15,22.70
2019,03,20,15,16,22.70
2019,03,20,15,17,22.70
2019,03,20,15,18,22.70
2019,03,20,15,19,22.80
2019,03,20,15,20,22.80
2019,03,20,15,21,22.80
2019,03,20,15,22,22.80
2019,03,20,15,23,22.70
2019,03,20,15,24,22.70
2019,03,20,15,25,22.70
2019,03,20,15,26,22.70
2019,03,20,15,27,22.80
2019,03,20,15,28,22.80
2019,03,20,15,29,22.80
2019,03,20,15,30,22.80
2019,03,20,15,31,22.80
2019,03,20,15,32,22.80
2019,03,20,15,33,22.90
2019,03,20,15,34,22.90
2019,03,20,15,35,22.90
2019,03,20,15,36,22.90
2019,03,20,15,37,22.90
2019,03,20,15,38,22.90
2019,03,20,15,39,22.90
2019,03,20,15,40,22.90
2019,03,20,15,41,22.90
2019,03,20,15,42,23.00
2019,03,20,15,43,23.00
2019,03,20,15,44,23.00
2019,03,20,15,45,23.00
2019,03,20,15,46,23.00
2019,03,20,15,47,23.00
2019,03,20,15,48,23.00
2019,03,20,15,49,23.00
2019,03,20,15,50,23.00
2019,03,20,15,51,23.10
2019,03,20,15,52,23.20
2019,03,20,15,53,23.30
2019,03,20,15,54,23.40
2019,03,20,15,55,23.40
2019,03,20,15,56,23.50
2019,03,20,15,57,23.50
2019,03,20,15,58,23.60
2019,03,20,15,59,23.60
2019,03,20,16,00,23.60
2019,03,20,16,01,23.70
2019,03,20,16,02,23.70
2019,03,20,16,03,23.70
2019,03,20,16,04,23.70
2019,03,20,16,05,23.70
2019,03,20,16,06,23.70
2019,03,20,16,07,23.70
2019,03,20,16,08,23.60
2019,03,20,16,09,23.60
2019,03,20,16,10,23.50
2019,03,20,16,11,23.50
2019,03,20,16,12,23.50
2019,03,20,16,13,23.50
2019,03,20,16,14,23.40
2019,03,20,16,15,23.50
2019,03,20,16,16,23.50
2019,03,20,16,17,23.50
2019,03,20,16,18,23.50
2019,03,20,16,19,23.60
2019,03,20,16,20,23.70
2019,03,20,16,21,23.80
2019,03,20,16,22,23.90
2019,03,20,16,23,24.00
2019,03,20,16,24,24.00
2019,03,20,16,25,24.10
2019,03,20,16,26,24.20
2019,03,20,16,27,24.30
2019,03,20,16,28,24.50
2019,03,20,16,29,24.60
2019,03,20,16,30,24.70
2019,03,20,16,31,24.70
2019,03,20,16,32,24.70
2019,03,20,16,33,24.70
2019,03,20,16,34,24.70
2019,03,20,16,35,24.70
2019,03,20,16,36,24.70
2019,03,20,16,37,24.70
2019,03,20,16,38,24.50
2019,03,20,16,39,24.40
2019,03,20,16,40,24.30
2019,03,20,16,41,24.30
2019,03,20,16,42,24.40
2019,03,20,16,43,24.40
2019,03,20,16,44,24.40
2019,03,20,16,45,24.40
2019,03,20,16,46,24.40
2019,03,20,16,47,24.40
2019,03,20,16,48,24.40
2019,03,20,16,49,24.30
2019,03,20,16,50,24.40
2019,03,20,16,51,24.40
2019,03,20,16,52,24.40
2019,03,20,16,53,24.40
2019,03,20,16,54,24.40
2019,03,20,16,55,24.40
2019,03,20,16,56,24.30
2019,03,20,16,57,24.30
2019,03,20,16,58,24.30
2019,03,20,16,59,24.20
2019,03,20,17,00,24.20
2019,03,20,17,01,24.20
2019,03,20,17,02,24.20
2019,03,20,17,03,24.10
2019,03,20,17,04,24.10
2019,03,20,17,05,24.10
2019,03,20,17,06,24.10
2019,03,20,17,07,24.10
2019,03,20,17,08,24.10
2019,03,20,17,09,24.10
2019,03,20,17,10,24.10
2019,03,20,17,11,24.00
2019,03,20,17,12,24.00
2019,03,20,17,13,24.10
2019,03,20,17,14,24.10
2019,03,20,17,15,24.10
2019,03,20,17,16,24.10
2019,03,20,17,17,24.10
2019,03,20,17,18,24.00
2019,03,20,17,19,24.00
2019,03,20,17,20,23.90
2019,03,20,17,21,23.90
2019,03,20,17,22,23.90
2019,03,20,17,23,23.90
2019,03,20,17,24,23.90
2019,03,20,17,25,23.80
2019,03,20,17,26,23.80
2019,03,20,17,27,23.70
2019,03,20,17,28,23.60
2019,03,20,17,29,23.60
2019,03,20,17,30,23.60
2019,03,20,17,31,23.60
2019,03,20,17,32,23.60
2019,03,20,17,33,23.60
2019,03,20,17,34,23.60
2019,03,20,17,35,23.60
2019,03,20,17,36,23.50
2019,03,20,17,37,23.50
2019,03,20,17,38,23.50
2019,03,20,17,39,23.50
2019,03,20,17,40,23.50
2019,03,20,17,41,23.50
2019,03,20,17,42,23.50
2019,03,20,17,43,23.50
2019,03,20,17,44,23.50
2019,03,20,17,45,23.40
2019,03,20,17,46,23.40
2019,03,20,17,47,23.40